Location: Strohbehn Observatory
(42.4649°N, 93.8239°W)
Time: 10:22:56
(UTC-05:00)

Daily predictions for brighter satellites

Satellite Brightness Start Highest point End
(mag) Time Altitude Azimuth Time Altitude Azimuth Time Altitude Azimuth
Cosmos 1500 Rocket 3.5 18:39:13 10° N 18:43:33 68° E 18:47:50 10° SSE
Cosmos 1420 Rocket 4.1 18:39:36 10° NNW 18:44:54 63° ENE 18:50:07 10° SSE
CORIOLIS 4.2 18:39:37 10° SSE 18:44:59 75° ENE 18:50:25 10° N
Cosmos 1400 Rocket 3.1 18:42:16 10° NNW 18:46:17 75° W 18:50:12 10° S
COSMOS 2428 2.9 18:43:31 10° NNW 18:49:06 54° ENE 18:54:39 10° SE
Cosmos 2333 Rocket 3.0 18:46:32 10° N 18:51:39 32° NE 18:56:45 10° ESE
Cosmos 2219 3.6 18:46:49 10° S 18:52:12 43° ESE 18:57:36 10° NE
ERS-2 2.1 18:50:03 10° SSE 18:53:44 74° ENE 18:57:26 10° N
Cosmos 2297 Rocket 3.8 18:54:49 10° SE 18:57:30 14° E 19:00:09 10° ENE
Cosmos 1726 3.1 18:55:18 10° SSE 18:58:23 26° E 19:01:29 10° NNE
Cosmos 2058 3.2 18:57:50 10° NNW 19:02:00 72° W 19:06:06 10° S
SL-8 R/B 4.3 18:59:02 10° W 19:03:43 49° NNW 19:08:21 10° ENE
Sich 1 4.1 19:00:38 10° NNE 19:04:17 25° ENE 19:07:55 10° SE
Cosmos 44 3.0 19:01:37 10° SSW 19:05:58 89° SE 19:10:20 10° NNE
Cosmos 2151 3.5 19:01:59 10° NNW 19:06:14 63° W 19:10:24 10° S
MOS 1 4.3 19:01:16 10° SSE 19:06:51 66° ENE 19:12:30 10° N
NOAA 12 4.5 19:02:03 10° SE 19:07:00 42° ENE 19:11:59 10° N
Ariane Rocket 4.3 19:03:19 10° S 19:08:11 47° W 19:13:07 10° NNW
MONITOR-E 4.2 19:07:42 10° SSE 19:10:42 52° ENE 19:13:43 10° N
EO 1 Del DPAF 3.2 19:08:05 10° NNE 19:11:56 70° ESE 19:15:45 10° S
Landsat 4 4.2 19:08:34 10° N 19:12:15 61° WNW 19:15:55 10° SSW
COSMO-SKYMED 1 2.6 19:09:16 10° NNE 19:13:34 60° E 19:17:51 10° S
METEOR-M 4.1 19:11:05 10° SSE 19:16:25 76° ENE 19:21:46 10° N
Cosmos 2219 Rocket 2.3 19:11:54 10° NNW 19:17:26 56° ENE 19:22:56 10° SE
SMAP 4.5 19:13:03 10° S 19:17:28 43° W 19:21:55 10° NNW
MTI 4.2 19:15:10 10° N 19:18:22 66° WNW 19:21:32 10° SSW
Meteor 1-28 Rocket 4.1 19:17:55 10° N 19:21:37 51° WNW 19:25:14 10° SSW
CZ-4 R/B 2.8 19:17:58 10° S 19:21:57 44° W 19:25:55 10° NNW
Abrixas rocket 3.2 19:19:14 10° NW 19:22:15 33° NNE 19:23:56 20° ENE
Cosmos 1805 Rocket 3.6 19:18:30 10° N 19:22:52 59° E 19:27:13 10° SSE
BREEZE-M DEB (TANK) 3.8 19:13:50 10° W 19:26:51 66° N 19:29:58 19° ENE
GRACE-2 4.5 19:24:33 10° S 19:27:04 53° W 19:29:35 10° N
CZ-4C R/B 2.1 19:23:12 10° SW 19:28:24 89° NW 19:34:23 10° NE
Aureole 2 Rocket 2.7 19:24:40 10° NNW 19:28:40 77° ENE 19:32:45 10° SSE
MINOTAUR R/B 4.5 19:27:10 10° S 19:29:40 43° ESE 19:30:29 31° ENE
Cosmos 1666 Rocket 3.7 19:28:15 10° N 19:32:26 46° ENE 19:36:36 10° SSE
Cosmos 1535 Rocket 4.4 19:27:11 10° S 19:33:12 64° E 19:39:13 10° NNE
Cosmos 2228 Rocket 4.2 19:30:36 10° SE 19:34:09 23° E 19:34:24 23° E
YAOGAN 1 3.7 19:30:29 10° S 19:34:39 47° W 19:38:51 10° NNW
Cosmos 1328 Rocket 4.4 19:32:08 10° SSE 19:35:51 28° E 19:39:35 10° NNE
Cosmos 1315 Rocket 4.4 19:32:14 10° NNW 19:36:04 39° W 19:39:55 10° SSW
Cosmos 1633 Rocket 3.4 19:31:56 10° N 19:36:11 42° ENE 19:40:23 10° SSE
DMSP B5D1-3 4.5 19:31:34 10° NNE 19:36:41 64° ESE 19:41:47 10° S
FREGAT/IRIS 4.0 19:37:52 22° NE 19:37:52 22° NE 19:39:27 10° N
Cosmos 1269 Rocket 4.1 19:31:33 10° SSW 19:36:50 80° WNW 19:42:09 10° NNE
BREEZE-M R/B 3.0 19:36:14 10° SSW 19:38:37 33° SE 19:39:11 31° ESE
Iridium 4 Rocket 3.8 19:34:03 10° S 19:39:44 88° E 19:45:42 10° N
PSLV R/B 3.6 19:43:50 10° WSW 19:46:49 41° SSE 19:47:13 39° SE
Cosmos 44 Rocket 4.3 19:43:06 10° WSW 19:47:34 42° NW 19:52:03 10° NNE
Cosmos 2084 3.1 19:43:55 10° NW 19:47:44 85° WSW 19:50:20 20° SSE
Cosmos 494 Rocket 4.0 19:44:11 10° S 19:49:08 54° ESE 19:54:08 10° NNE
Cosmos 2221 3.8 19:47:10 10° SSW 19:51:18 43° WNW 19:55:29 10° N
SPOT 3 Rocket 4.1 19:47:22 10° S 19:52:30 61° WSW 19:57:41 10° NNW
In-Cosmos 22 Rocket 4.2 19:47:49 10° N 19:53:35 64° ENE 19:59:21 10° SSE
SJ-6B 3.4 19:56:40 34° NE 19:56:40 34° NE 19:59:23 10° N
Cosmos 2237 Rocket 2.2 19:50:39 10° NNW 19:56:20 63° ENE 20:00:17 20° SE
H-2A R/B 2.8 19:55:28 30° SE 19:57:07 56° ENE 20:01:00 10° N
Cosmos 1934 Rocket 4.0 19:52:37 10° S 19:58:59 85° E 20:05:23 10° N
Lacrosse 5 rocket 3.7 19:57:26 10° NNW 19:59:15 12° N 20:00:02 12° NNE
Cosmos 1110 Rocket 3.9 19:55:31 10° NNW 20:00:52 87° ENE 20:06:07 10° SSE
Cosmos 1821 Rocket 4.3 19:56:39 10° SSW 20:02:48 69° W 20:09:05 10° N
Cosmos 2227 Rocket 2.1 19:58:08 10° S 20:03:41 61° ESE 20:08:05 17° NNE
MOS 1-B Rocket 4.3 20:03:12 32° ESE 20:05:11 43° ENE 20:11:06 10° N
Cosmos 1300 3.1 20:04:41 10° SSW 20:08:27 62° W 20:12:16 10° N
Cosmos 2098 Rocket 4.5 20:03:42 10° SSW 20:08:28 52° WNW 20:14:32 10° N
SL-16 R/B 2.8 20:04:37 10° N 20:09:50 35° ENE 20:09:56 35° ENE
USA 32 4.0 20:06:47 10° N 20:11:56 55° E 20:13:51 36° SE
ATLAS 5 CENTAUR R/B 4.3 20:14:32 10° N 20:16:52 12° NNE 20:17:12 12° NNE
ALOS 3.4 20:13:45 10° S 20:18:12 44° W 20:22:41 10° NNW
Cosmos 1980 3.7 20:15:24 10° NNW 20:21:04 79° WSW 20:24:57 21° SSE
Envisat 4.1 20:28:03 31° NNE 20:28:03 31° NNE 20:30:59 10° N
Cosmos 1470 Rocket 3.7 20:26:32 10° N 20:30:27 67° N 20:30:27 67° N
Cosmos 2251 Rocket 3.4 20:26:23 10° SSW 20:31:42 87° WNW 20:34:46 26° NNE
Meteor 2-3 Rocket 3.6 20:28:52 10° N 20:34:38 77° E 20:35:42 59° SE
Cosmos 2333 Rocket 3.4 20:30:38 10° NW 20:36:00 41° WSW 20:41:20 10° S
Hubble Space Telescope 3.5 20:35:41 10° SSW 20:35:51 10° SSW 20:35:51 10° SSW
Cosmos 1605 Rocket 4.1 20:31:18 10° SSW 20:37:23 71° W 20:43:28 10° N
Cosmos 967 Rocket 4.5 20:32:30 10° NNW 20:39:00 84° WSW 20:41:03 47° SSE
Cosmos 2297 Rocket 2.1 20:35:04 10° SSW 20:40:43 83° WNW 20:42:51 40° NNE
BREEZE-M DEB (TANK) 3.3 20:26:58 10° WNW 20:41:33 84° SSW 20:42:21 66° SE
Cosmos 1153 Rocket 4.3 20:38:03 10° S 20:44:12 88° E 20:50:27 10° N
USA 267 4.1 20:52:07 33° S 20:52:07 33° S 20:56:06 10° SSW
Cosmos 2082 3.9 20:46:35 10° SSW 20:52:16 69° WNW 20:54:11 42° N
Meteor 2-17 Rocket 4.3 20:46:13 10° S 20:52:17 87° W 20:58:25 10° N
Resurs 01 Rocket 3.7 20:58:52 20° NNW 20:58:52 20° NNW 21:00:13 10° NNW
CZ-4C R/B 4.4 21:13:41 10° W 21:17:53 21° NNW 21:21:00 15° N
USA 234 4.2 21:26:41 36° N 21:26:41 36° N 21:31:31 10° NW
Cosmos 2227 Rocket 4.3 21:43:47 10° WSW 21:48:11 23° NW 21:49:59 20° NNW
SL-16 R/B 4.0 21:48:47 10° NW 21:51:50 27° WNW 21:51:50 27° WNW
